KMA106 ULLI-UUYY

Flight info

Callsign KMA106
Flight time N/A
Altitude 35000
Route KERIS1A KERIS P989 ADKOL ADKOL1M
Aircraft E145/M-SABDFGRW/S

Departure

Time 2026-05-06 17:45
Airport Pulkovo Airport (ULLI)

Arrival

Time N/A
Airport Syktyvkar Airport (UUYY)
Time Latitude Longitude Altitude Speed Heading
2026-05-06 17:27 59.79854 30.26314 84 ft 0 kts 286°
2026-05-06 17:39 59.79854 30.26313 84 ft 1 kts 286°
2026-05-06 17:39 59.79862 30.26262 84 ft 5 kts 287°
2026-05-06 17:39 59.79890 30.26202 84 ft 7 kts
2026-05-06 17:39 59.79949 30.26230 84 ft 9 kts 15°
2026-05-06 17:40 59.80022 30.26273 84 ft 12 kts 17°
2026-05-06 17:40 59.80109 30.26327 84 ft 14 kts 15°
2026-05-06 17:40 59.80210 30.26381 84 ft 16 kts 14°
2026-05-06 17:40 59.80306 30.26438 84 ft 14 kts 13°
2026-05-06 17:41 59.80360 30.26450 84 ft 8 kts
2026-05-06 17:41 59.80426 30.26491 84 ft 10 kts 33°
2026-05-06 17:41 59.80430 30.26638 84 ft 12 kts 107°
2026-05-06 17:41 59.80401 30.26823 84 ft 15 kts 110°
2026-05-06 17:42 59.80371 30.27035 84 ft 16 kts 103°
2026-05-06 17:42 59.80337 30.27271 84 ft 18 kts 106°
2026-05-06 17:42 59.80298 30.27534 84 ft 20 kts 107°
2026-05-06 17:42 59.80240 30.27925 84 ft 23 kts 107°
2026-05-06 17:43 59.80212 30.28108 84 ft 19 kts 106°
2026-05-06 17:43 59.80171 30.28379 85 ft 21 kts 107°
2026-05-06 17:43 59.80171 30.28598 85 ft 13 kts 43°
2026-05-06 17:43 59.80220 30.28691 85 ft 0 kts 50°
2026-05-06 17:44 59.80244 30.28751 85 ft 13 kts 52°
2026-05-06 17:44 59.80331 30.28831 85 ft 16 kts 313°
2026-05-06 17:45 59.80390 30.28462 85 ft 58 kts 287°
2026-05-06 17:45 59.80573 30.27215 84 ft 126 kts 286°
2026-05-06 17:45 59.80816 30.25360 369 ft 153 kts 278°
2026-05-06 17:45 59.81162 30.22227 787 ft 193 kts 298°
2026-05-06 17:46 59.81608 30.20638 1160 ft 205 kts 302°
2026-05-06 17:46 59.82321 30.18075 1640 ft 227 kts 290°
2026-05-06 17:46 59.82555 30.14784 2225 ft 249 kts 282°
2026-05-06 17:46 59.82938 30.11500 3374 ft 248 kts 287°
2026-05-06 17:47 59.83519 30.08350 4276 ft 248 kts 287°
2026-05-06 17:47 59.83893 30.04995 5042 ft 253 kts 286°
2026-05-06 17:47 59.84522 30.01781 5857 ft 253 kts 307°
2026-05-06 17:47 59.85860 29.99646 6607 ft 252 kts 339°
2026-05-06 17:48 59.87574 29.99305 7369 ft 255 kts 10°
2026-05-06 17:48 59.89276 30.00316 8072 ft 260 kts 15°
2026-05-06 17:48 59.91023 30.01339 8726 ft 266 kts 14°
2026-05-06 17:48 59.92633 30.03192 9368 ft 278 kts 43°
2026-05-06 17:49 59.93618 30.06527 9991 ft 289 kts 73°
2026-05-06 17:49 59.93684 30.10534 10537 ft 299 kts 103°
2026-05-06 17:49 59.92571 30.15700 11068 ft 315 kts 111°
2026-05-06 17:49 59.92113 30.18483 11406 ft 322 kts 111°
2026-05-06 17:50 59.91194 30.22605 11803 ft 333 kts 116°
2026-05-06 17:50 59.90235 30.26857 12215 ft 343 kts 116°
2026-05-06 17:50 59.89259 30.31210 12760 ft 349 kts 115°
2026-05-06 17:50 59.88695 30.35949 13238 ft 358 kts 94°
2026-05-06 17:51 59.88570 30.40932 13756 ft 364 kts 94°
2026-05-06 17:51 59.88424 30.45966 14292 ft 369 kts 94°
2026-05-06 17:51 59.88273 30.51072 14831 ft 374 kts 94°
2026-05-06 17:51 59.88119 30.56237 15344 ft 378 kts 94°
2026-05-06 17:52 59.87907 30.63219 16034 ft 384 kts 94°
2026-05-06 17:52 59.87798 30.66773 16360 ft 387 kts 95°
2026-05-06 17:52 59.87630 30.72158 16809 ft 392 kts 96°
2026-05-06 17:52 59.87401 30.79395 17477 ft 397 kts 95°
2026-05-06 17:53 59.87284 30.83043 17770 ft 399 kts 95°
2026-05-06 17:53 59.87106 30.88546 18293 ft 401 kts 96°
2026-05-06 17:53 59.86925 30.94050 18834 ft 401 kts 96°
2026-05-06 17:53 59.86679 31.01420 19502 ft 404 kts 96°
2026-05-06 17:54 59.86554 31.05124 19853 ft 405 kts 96°
2026-05-06 17:54 59.86363 31.10717 20367 ft 406 kts 97°
2026-05-06 17:54 59.86171 31.16301 20887 ft 406 kts 97°
2026-05-06 17:54 59.85973 31.21935 21429 ft 407 kts 97°
2026-05-06 17:55 59.85774 31.27554 21894 ft 409 kts 98°
2026-05-06 17:55 59.85572 31.33193 22391 ft 410 kts 98°
2026-05-06 17:55 59.85367 31.38864 22879 ft 411 kts 98°
2026-05-06 17:55 59.85090 31.46394 23537 ft 412 kts 98°
2026-05-06 17:56 59.84950 31.50167 23861 ft 412 kts 99°
2026-05-06 17:56 59.84737 31.55818 24388 ft 412 kts 99°
2026-05-06 17:56 59.84523 31.61438 25010 ft 408 kts 98°
2026-05-06 17:56 59.84309 31.67017 25599 ft 407 kts 100°
2026-05-06 17:57 59.84092 31.72598 26119 ft 406 kts 99°
2026-05-06 17:57 59.83873 31.78162 26654 ft 405 kts 100°
2026-05-06 17:57 59.83651 31.83750 27196 ft 404 kts 100°
2026-05-06 17:57 59.83354 31.91146 27940 ft 401 kts 99°
2026-05-06 17:58 59.83204 31.94827 28240 ft 402 kts 99°
2026-05-06 17:58 59.82979 32.00339 28775 ft 401 kts 99°
2026-05-06 17:58 59.82752 32.05808 29352 ft 398 kts 99°
2026-05-06 17:58 59.82525 32.11244 29870 ft 397 kts 99°
2026-05-06 17:59 59.82294 32.16687 30334 ft 397 kts 98°
2026-05-06 17:59 59.82062 32.22139 30779 ft 398 kts 99°
2026-05-06 17:59 59.81826 32.27612 31262 ft 396 kts 99°
2026-05-06 17:59 59.81735 32.33060 31693 ft 399 kts 88°
2026-05-06 18:00 59.82336 32.40312 32162 ft 403 kts 72°
2026-05-06 18:00 59.82916 32.43824 32427 ft 403 kts 69°
2026-05-06 18:00 59.83745 32.49120 32862 ft 403 kts 72°
2026-05-06 18:00 59.84534 32.54453 33262 ft 404 kts 72°
2026-05-06 18:01 59.85309 32.59800 33646 ft 404 kts 73°
2026-05-06 18:01 59.86079 32.65161 34065 ft 404 kts 74°
2026-05-06 18:01 59.86843 32.70515 34404 ft 405 kts 73°
2026-05-06 18:01 59.87608 32.75888 34751 ft 405 kts 73°
2026-05-06 18:02 59.88372 32.81279 34999 ft 408 kts 73°
2026-05-06 18:02 59.89148 32.86765 35040 ft 418 kts 73°
2026-05-06 18:02 59.90202 32.94252 35048 ft 429 kts 73°
2026-05-06 18:02 59.90739 32.98080 35047 ft 436 kts 73°
2026-05-06 18:03 59.92382 33.09857 35052 ft 453 kts 73°
2026-05-06 18:03 59.94373 33.24193 35055 ft 468 kts 73°
2026-05-06 18:04 59.95823 33.34684 35060 ft 476 kts 72°
2026-05-06 18:04 59.97578 33.47481 35058 ft 485 kts 72°
2026-05-06 18:05 59.99355 33.60534 35061 ft 491 kts 73°
2026-05-06 18:05 60.01434 33.75949 35056 ft 498 kts 74°
2026-05-06 18:06 60.02920 33.87073 35055 ft 502 kts 74°
2026-05-06 18:06 60.04710 34.00565 35053 ft 506 kts 73°
2026-05-06 18:07 60.06498 34.14163 35056 ft 510 kts 74°
2026-05-06 18:07 60.08288 34.27901 35055 ft 513 kts 74°
2026-05-06 18:08 60.10073 34.41730 35060 ft 516 kts 73°
2026-05-06 18:08 60.11854 34.55655 35042 ft 519 kts 73°
2026-05-06 18:09 60.13631 34.69665 35030 ft 522 kts 75°
2026-05-06 18:09 60.15692 34.86103 35023 ft 523 kts 75°
2026-05-06 18:10 60.17155 34.97877 35033 ft 524 kts 74°
2026-05-06 18:10 60.18898 35.12027 35033 ft 525 kts 74°
2026-05-06 18:11 60.20635 35.26236 35042 ft 526 kts 74°
2026-05-06 18:11 60.22373 35.40473 35038 ft 527 kts 75°
2026-05-06 18:12 60.24101 35.54758 35032 ft 529 kts 74°
2026-05-06 18:12 60.25817 35.69099 35031 ft 530 kts 75°
2026-05-06 18:13 60.27526 35.83523 35019 ft 531 kts 75°
2026-05-06 18:13 60.29495 36.00324 35012 ft 531 kts 75°
2026-05-06 18:14 60.30891 36.12355 35013 ft 531 kts 75°
2026-05-06 18:14 60.32550 36.26803 35016 ft 531 kts 75°
2026-05-06 18:15 60.34197 36.41289 35031 ft 532 kts 75°
2026-05-06 18:15 60.36098 36.58208 35040 ft 533 kts 75°
2026-05-06 18:16 60.37447 36.70332 35023 ft 533 kts 76°
2026-05-06 18:16 60.39052 36.84919 35017 ft 533 kts 76°
2026-05-06 18:17 60.40639 36.99505 35025 ft 533 kts 76°
2026-05-06 18:17 60.42212 37.14107 35052 ft 533 kts 76°
2026-05-06 18:18 60.43767 37.28707 35023 ft 534 kts 75°
2026-05-06 18:18 60.45306 37.43327 35008 ft 533 kts 76°
2026-05-06 18:19 60.46840 37.57944 35006 ft 533 kts 75°
2026-05-06 18:19 60.48659 37.75028 35005 ft 533 kts 76°
2026-05-06 18:20 60.49939 37.87207 35003 ft 530 kts 76°
2026-05-06 18:20 60.51434 38.01591 34998 ft 517 kts 76°
2026-05-06 18:21 60.52886 38.15709 34995 ft 506 kts 76°
2026-05-06 18:21 60.54523 38.31806 34988 ft 498 kts 76°
2026-05-06 18:22 60.55668 38.43192 34999 ft 494 kts 76°
2026-05-06 18:22 60.57018 38.56752 34990 ft 490 kts 76°
2026-05-06 18:23 60.58342 38.70207 34986 ft 486 kts 77°
2026-05-06 18:23 60.59857 38.85789 34982 ft 481 kts 77°
2026-05-06 18:24 60.60820 38.96887 34980 ft 479 kts 78°
2026-05-06 18:24 60.61954 39.10136 34974 ft 476 kts 78°
2026-05-06 18:25 60.63069 39.23308 34979 ft 473 kts 78°
2026-05-06 18:25 60.64346 39.38599 34982 ft 470 kts 78°
2026-05-06 18:26 60.65243 39.49475 34963 ft 469 kts 78°
2026-05-06 18:26 60.66306 39.62503 35001 ft 468 kts 77°
2026-05-06 18:27 60.67352 39.75488 34968 ft 465 kts 79°
2026-05-06 18:27 60.68548 39.90567 34970 ft 463 kts 78°
2026-05-06 18:28 60.69391 40.01313 34965 ft 461 kts 78°
2026-05-06 18:28 60.70555 40.16348 34963 ft 460 kts 78°
2026-05-06 18:29 60.71374 40.27065 34990 ft 461 kts 79°
2026-05-06 18:29 60.72345 40.39938 34975 ft 461 kts 79°
2026-05-06 18:30 60.73306 40.52841 34970 ft 461 kts 79°
2026-05-06 18:30 60.74255 40.65753 34969 ft 464 kts 80°
2026-05-06 18:31 60.75368 40.81134 34955 ft 475 kts 80°
2026-05-06 18:31 60.76327 40.94598 34961 ft 483 kts 81°
2026-05-06 18:32 60.77128 41.05998 34963 ft 490 kts 80°
2026-05-06 18:32 60.78091 41.19888 34968 ft 497 kts 80°
2026-05-06 18:33 60.79049 41.33944 34961 ft 503 kts 80°
2026-05-06 18:33 60.80166 41.50599 34971 ft 510 kts 80°
2026-05-06 18:34 60.81070 41.65037 34965 ft 515 kts 82°
2026-05-06 18:34 60.81954 41.79607 34956 ft 519 kts 82°
2026-05-06 18:35 60.82681 41.91819 34955 ft 521 kts 82°
2026-05-06 18:35 60.83688 42.09004 34949 ft 523 kts 82°
2026-05-06 18:36 60.84541 42.23878 34954 ft 525 kts 82°
2026-05-06 18:36 60.85373 42.38713 34950 ft 524 kts 82°
2026-05-06 18:37 60.86050 42.50987 34961 ft 521 kts 82°
2026-05-06 18:37 60.86974 42.68094 34958 ft 518 kts 83°
2026-05-06 18:38 60.87616 42.80243 34940 ft 516 kts 84°
2026-05-06 18:38 60.88370 42.94771 34946 ft 513 kts 84°
2026-05-06 18:39 60.89105 43.09244 34948 ft 511 kts 83°
2026-05-06 18:40 60.90291 43.33298 34951 ft 509 kts 84°
2026-05-06 18:40 60.90981 43.47697 34941 ft 509 kts 84°
2026-05-06 18:41 60.91655 43.62089 34931 ft 508 kts 84°
2026-05-06 18:41 60.92203 43.74064 34916 ft 507 kts 84°
2026-05-06 18:42 60.92845 43.88418 34916 ft 506 kts 84°
2026-05-06 18:42 60.93472 44.02733 34903 ft 505 kts 85°
2026-05-06 18:43 60.94263 44.17001 34915 ft 504 kts 77°
2026-05-06 18:43 60.96074 44.30821 34902 ft 503 kts 74°
2026-05-06 18:44 60.97812 44.44676 34907 ft 502 kts 73°
2026-05-06 18:44 60.99522 44.58531 34922 ft 501 kts 74°
2026-05-06 18:45 61.01218 44.72401 34930 ft 501 kts 75°
2026-05-06 18:45 61.03172 44.88555 34920 ft 500 kts 75°
2026-05-06 18:46 61.04555 45.00096 34928 ft 499 kts 76°
2026-05-06 18:46 61.06468 45.16208 34917 ft 498 kts 76°
2026-05-06 18:47 61.07822 45.27734 34906 ft 498 kts 76°
2026-05-06 18:47 61.09437 45.41597 34909 ft 498 kts 76°
2026-05-06 18:48 61.11033 45.55436 34904 ft 497 kts 76°
2026-05-06 18:48 61.12616 45.69288 34856 ft 497 kts 77°
2026-05-06 18:49 61.14439 45.85429 34877 ft 495 kts 77°
2026-05-06 18:49 61.15726 45.96932 34839 ft 494 kts 77°
2026-05-06 18:50 61.17256 46.10719 34891 ft 495 kts 77°
2026-05-06 18:50 61.18783 46.24544 34881 ft 494 kts 77°
2026-05-06 18:51 61.20545 46.40675 34896 ft 494 kts 77°
2026-05-06 18:51 61.21793 46.52219 34908 ft 494 kts 77°
2026-05-06 18:52 61.23525 46.68417 34910 ft 495 kts 78°
2026-05-06 18:52 61.25213 46.82263 34555 ft 501 kts 75°
2026-05-06 18:52 61.25795 46.86878 34243 ft 495 kts 75°
2026-05-06 18:53 61.26653 46.93722 33752 ft 490 kts 74°
2026-05-06 18:53 61.27497 47.00494 33245 ft 485 kts 73°
2026-05-06 18:53 61.28332 47.07211 32714 ft 480 kts 73°
2026-05-06 18:53 61.29157 47.13875 32194 ft 476 kts 72°
2026-05-06 18:54 61.29975 47.20532 31682 ft 473 kts 72°
2026-05-06 18:54 61.30781 47.27105 31182 ft 469 kts 72°
2026-05-06 18:54 61.31580 47.33677 30654 ft 467 kts 72°
2026-05-06 18:54 61.32206 47.40277 30127 ft 465 kts 76°
2026-05-06 18:55 61.32815 47.46835 29587 ft 462 kts 76°
2026-05-06 18:55 61.33422 47.53333 29055 ft 459 kts 76°
2026-05-06 18:55 61.34028 47.59831 28521 ft 456 kts 76°
2026-05-06 18:55 61.34827 47.68439 27809 ft 452 kts 78°
2026-05-06 18:56 61.35416 47.74841 27264 ft 449 kts 77°
2026-05-06 18:56 61.35824 47.79068 26900 ft 447 kts 76°
2026-05-06 18:56 61.36507 47.85412 26355 ft 445 kts 76°
2026-05-06 18:56 61.37383 47.93717 25644 ft 442 kts 76°
2026-05-06 18:57 61.37816 47.97856 25290 ft 440 kts 76°
2026-05-06 18:57 61.38674 48.06099 24603 ft 437 kts 76°
2026-05-06 18:57 61.39099 48.10197 24263 ft 435 kts 76°
2026-05-06 18:57 61.39941 48.18364 23590 ft 433 kts 76°
2026-05-06 18:58 61.40358 48.22427 23270 ft 431 kts 76°
2026-05-06 18:58 61.40979 48.28497 22778 ft 429 kts 76°
2026-05-06 18:58 61.41596 48.34556 22291 ft 427 kts 76°
2026-05-06 18:58 61.42407 48.42575 21641 ft 425 kts 77°
2026-05-06 18:59 61.43010 48.48573 21156 ft 423 kts 76°
2026-05-06 18:59 61.43608 48.54539 20668 ft 421 kts 76°
2026-05-06 18:59 61.44003 48.58500 20344 ft 420 kts 77°
2026-05-06 18:59 61.44787 48.66395 19701 ft 417 kts 77°
2026-05-06 19:00 61.45176 48.70331 19365 ft 416 kts 77°
2026-05-06 19:00 61.45754 48.76202 18859 ft 414 kts 77°
2026-05-06 19:00 61.46518 48.84005 18213 ft 411 kts 77°
2026-05-06 19:00 61.46895 48.87878 17892 ft 410 kts 77°
2026-05-06 19:01 61.47645 48.95610 17245 ft 407 kts 78°
2026-05-06 19:01 61.48016 48.99454 16923 ft 406 kts 78°
2026-05-06 19:01 61.48568 49.05194 16429 ft 403 kts 78°
2026-05-06 19:01 61.49113 49.10896 15943 ft 401 kts 78°
2026-05-06 19:02 61.49654 49.16575 15434 ft 398 kts 78°
2026-05-06 19:02 61.50188 49.22206 14943 ft 396 kts 78°
2026-05-06 19:02 61.50717 49.27813 14459 ft 393 kts 78°
2026-05-06 19:02 61.51240 49.33376 13966 ft 390 kts 78°
2026-05-06 19:03 61.52006 49.38734 13474 ft 383 kts 62°
2026-05-06 19:03 61.53481 49.45417 12841 ft 379 kts 62°
2026-05-06 19:03 61.54200 49.48733 12528 ft 376 kts 62°
2026-05-06 19:03 61.55627 49.55319 11849 ft 371 kts 62°
2026-05-06 19:04 61.56330 49.58568 11523 ft 368 kts 62°
2026-05-06 19:04 61.57372 49.63398 11090 ft 362 kts 62°
2026-05-06 19:04 61.58718 49.69663 10798 ft 344 kts 63°
2026-05-06 19:04 61.59667 49.74108 10799 ft 326 kts 63°
2026-05-06 19:05 61.60273 49.76945 10800 ft 316 kts 63°
2026-05-06 19:05 61.61433 49.82379 10798 ft 298 kts 63°
2026-05-06 19:05 61.61989 49.84984 10805 ft 290 kts 63°
2026-05-06 19:05 61.63060 49.90013 10791 ft 277 kts 63°
2026-05-06 19:06 61.63829 49.93634 10787 ft 268 kts 62°
2026-05-06 19:06 61.64574 49.97148 10782 ft 260 kts 63°
2026-05-06 19:06 61.65294 50.00551 10796 ft 251 kts 62°
2026-05-06 19:06 61.65762 50.02763 10794 ft 247 kts 62°
2026-05-06 19:07 61.66448 50.06011 10785 ft 240 kts 62°
2026-05-06 19:07 61.67113 50.09167 10779 ft 233 kts 62°
2026-05-06 19:07 61.67969 50.13233 10798 ft 224 kts 61°
2026-05-06 19:07 61.68589 50.16180 10783 ft 219 kts 62°
2026-05-06 19:08 61.69005 50.18156 10789 ft 227 kts 62°
2026-05-06 19:08 61.69680 50.21368 10547 ft 255 kts 62°
2026-05-06 19:08 61.70420 50.24909 10233 ft 269 kts 63°
2026-05-06 19:08 61.71451 50.29847 9863 ft 282 kts 63°
2026-05-06 19:09 61.72246 50.33667 9605 ft 289 kts 63°
2026-05-06 19:09 61.72786 50.36265 9397 ft 292 kts 63°
2026-05-06 19:09 61.73882 50.41538 9071 ft 298 kts 63°
2026-05-06 19:09 61.74713 50.45554 8803 ft 301 kts 63°
2026-05-06 19:10 61.75280 50.48248 8641 ft 302 kts 60°
2026-05-06 19:10 61.76764 50.53181 8305 ft 300 kts 52°
2026-05-06 19:10 61.77914 50.56874 8017 ft 301 kts 52°
2026-05-06 19:10 61.78680 50.59335 7835 ft 302 kts 51°
2026-05-06 19:11 61.80214 50.64270 7520 ft 302 kts 51°
2026-05-06 19:11 61.80979 50.66737 7356 ft 301 kts 52°
2026-05-06 19:11 61.82124 50.70433 7065 ft 301 kts 52°
2026-05-06 19:11 61.83456 50.75583 6702 ft 305 kts 71°
2026-05-06 19:12 61.83565 50.80061 6431 ft 309 kts 98°
2026-05-06 19:12 61.83116 50.82929 6258 ft 309 kts 117°
2026-05-06 19:12 61.81193 50.87273 5904 ft 305 kts 143°
2026-05-06 19:12 61.80178 50.89346 5738 ft 306 kts 134°
2026-05-06 19:13 61.78619 50.92339 5457 ft 303 kts 151°
2026-05-06 19:13 61.75997 50.93728 5089 ft 290 kts 187°
2026-05-06 19:13 61.74708 50.93160 4896 ft 281 kts 207°
2026-05-06 19:13 61.72372 50.90996 4788 ft 271 kts 208°
2026-05-06 19:14 61.71215 50.90011 4782 ft 266 kts 207°
2026-05-06 19:14 61.68975 50.88117 4781 ft 256 kts 207°
2026-05-06 19:14 61.67884 50.87196 4785 ft 252 kts 208°
2026-05-06 19:14 61.65743 50.85399 4789 ft 246 kts 206°
2026-05-06 19:15 61.64617 50.84965 4785 ft 251 kts 184°
2026-05-06 19:15 61.62490 50.86790 4806 ft 255 kts 136°
2026-05-06 19:15 61.61620 50.89942 4805 ft 250 kts 100°
2026-05-06 19:15 61.61706 50.93439 4805 ft 236 kts 63°
2026-05-06 19:16 61.62656 50.96009 4804 ft 216 kts 25°
2026-05-06 19:16 61.64022 50.96735 4813 ft 198 kts 347°
2026-05-06 19:16 61.65205 50.95545 4814 ft 188 kts 319°
2026-05-06 19:16 61.66230 50.93837 4799 ft 188 kts 320°
2026-05-06 19:17 61.67249 50.92119 4795 ft 188 kts 319°
2026-05-06 19:17 61.68263 50.90391 4795 ft 187 kts 319°
2026-05-06 19:17 61.69274 50.88661 4799 ft 187 kts 318°
2026-05-06 19:17 61.69965 50.86438 4804 ft 185 kts 282°
2026-05-06 19:18 61.69723 50.83785 4817 ft 195 kts 243°
2026-05-06 19:18 61.69057 50.82443 4816 ft 206 kts 216°
2026-05-06 19:18 61.67120 50.82018 4821 ft 220 kts 176°
2026-05-06 19:18 61.66111 50.82337 4808 ft 221 kts 177°
2026-05-06 19:19 61.64588 50.82806 4798 ft 222 kts 177°
2026-05-06 19:19 61.63068 50.83284 4801 ft 221 kts 177°
2026-05-06 19:19 61.61036 50.83905 4800 ft 221 kts 176°
2026-05-06 19:19 61.59514 50.84366 4793 ft 221 kts 177°
2026-05-06 19:20 61.57988 50.84835 4798 ft 221 kts 177°
2026-05-06 19:20 61.56973 50.85146 4798 ft 221 kts 177°
2026-05-06 19:20 61.55444 50.85608 4797 ft 221 kts 177°
2026-05-06 19:20 61.53418 50.86226 4803 ft 221 kts 177°
2026-05-06 19:21 61.51899 50.86685 4804 ft 222 kts 176°
2026-05-06 19:21 61.50373 50.87149 4795 ft 222 kts 177°
2026-05-06 19:21 61.48847 50.87613 4795 ft 222 kts 176°
2026-05-06 19:21 61.47317 50.88081 4802 ft 223 kts 176°
2026-05-06 19:22 61.45784 50.88553 4809 ft 224 kts 177°
2026-05-06 19:22 61.44243 50.89022 4800 ft 225 kts 177°
2026-05-06 19:22 61.42694 50.89493 4797 ft 225 kts 176°
2026-05-06 19:22 61.41143 50.89970 4799 ft 226 kts 177°
2026-05-06 19:23 61.39593 50.90445 4801 ft 226 kts 176°
2026-05-06 19:23 61.38559 50.90759 4799 ft 226 kts 176°
2026-05-06 19:23 61.36487 50.91387 4804 ft 226 kts 176°
2026-05-06 19:23 61.35453 50.91698 4814 ft 226 kts 176°
2026-05-06 19:24 61.33379 50.92313 4813 ft 226 kts 176°
2026-05-06 19:24 61.31822 50.92765 4815 ft 227 kts 176°
2026-05-06 19:24 61.30254 50.93212 4812 ft 227 kts 176°
2026-05-06 19:24 61.28691 50.93670 4818 ft 227 kts 176°
2026-05-06 19:25 61.27127 50.94130 4816 ft 228 kts 176°
2026-05-06 19:25 61.25557 50.94599 4819 ft 228 kts 176°
2026-05-06 19:25 61.24513 50.94914 4822 ft 228 kts 176°
2026-05-06 19:25 61.22418 50.95541 4815 ft 229 kts 176°
2026-05-06 19:26 61.20847 50.96010 4823 ft 229 kts 176°